Home   Weather   Reinach   Past weeks

Flag for Switzerland Past Weather in Reinach, Basel-Land, Switzerland — Yesterday and Last 2 Weeks

Now
51 °F

Passing clouds.


Feels Like: 51 °F
Forecast: 43 / 61 °F
Wind: 2 mph from South

Location: Bale-Mulhouse

Current Time: Apr 25, 2017 at 1:21:01 am

Latest Report: Apr 25, 2017 at 12:00 am


Visibility: 19 mi

Pressure: 29.83 "Hg

Humidity: 65%

Dew Point: 40 °F

Location of ReinachLocation

Past Weather in Reinach — Graph

°F

Reinach Temperature Yesterday

Maximum temperature yesterday: 69 °F (at 5:00 pm)
Minimum temperature yesterday: 30 °F (at 6:00 am)
Average temperature yesterday: 51 °F

High & Low Weather Summary for the Past Weeks

 TemperatureHumidityPressure
High76 °F (Apr 10, 3:00 pm)97% (Apr 18, 3:00 am)30.58 "Hg (Apr 18, 3:00 am)
Low25 °F (Apr 20, 7:00 am)19% (Apr 21, 6:00 pm)29.82 "Hg (Apr 24, 8:00 pm)
Average49 °F63%30.21 "Hg
* Reported Apr 10 12:00 am — Apr 25 12:00 am, Reinach, Weather by CustomWeather, © 2017

Note: Actual official high and low records may vary slightly from our data, if they occured in-between our weather recording intervals... More about our weather records

Advertising

Reinach Weather History for the Previous 24 Hours

Scroll right to see more
 ConditionsComfort  
Time TempWeatherWind HumidityBarometerVisibility
12:00 am
Tue, Apr 25
51 °FPassing clouds.2 mph65%29.83 "Hg19 mi
11:00 pm
Mon, Apr 24
51 °FPassing clouds.3 mph62%29.84 "Hg19 mi
10:00 pm55 °FPassing clouds.5 mph54%29.84 "Hg37 mi
9:00 pm60 °FPassing clouds.3 mph44%29.83 "Hg37 mi
8:00 pm65 °FOvercast.5 mph38%29.82 "Hg37 mi
7:00 pm68 °FPartly sunny.7 mph33%29.83 "Hg25 mi
6:00 pm69 °FPartly sunny.5 mph31%29.84 "Hg25 mi
5:00 pm69 °FPartly sunny.6 mph29%29.86 "Hg25 mi
4:00 pm68 °FPartly sunny.7 mph30%29.89 "Hg25 mi
3:00 pm68 °FPartly sunny.3 mph30%29.93 "Hg25 mi
2:00 pm64 °FMild.6 mph32%29.96 "Hg31 mi
1:00 pm62 °FPassing clouds.3 mph36%30.00 "Hg25 mi
12:00 pm58 °FPassing clouds.2 mph41%30.03 "Hg25 mi
11:00 am54 °FSunny.5 mph44%30.06 "Hg25 mi
10:00 am50 °FSunny.5 mph49%30.08 "Hg25 mi
9:00 am46 °FSunny.No wind57%30.11 "Hg25 mi
8:00 am38 °FPassing clouds.No wind79%30.14 "Hg25 mi
7:00 am30 °FSunny.2 mph89%30.16 "Hg12 mi
6:00 am30 °FClear.2 mph89%30.16 "Hg12 mi
5:00 am31 °FClear.2 mph83%30.17 "Hg12 mi
4:00 am33 °FChilly.1 mph78%30.18 "Hg31 mi
3:00 am34 °FChilly.2 mph76%30.19 "Hg31 mi
2:00 am35 °FChilly.5 mph74%30.20 "Hg34 mi
1:00 am35 °FChilly.7 mph72%30.22 "Hg34 mi
Weather by CustomWeather, © 2017

See weather overviewHow to use our weather pages